{"data":{"norad_id":43260,"epoch":"2026-05-25T04:00:13.298112Z","epoch_age_seconds":61391,"freshness":"FRESH","line1":"1 43260U 18031B   26145.16682058  .00000575  00000+0  89925-4 0  9995","line2":"2 43260  98.0527 207.6173 0003448 130.1802 229.9710 14.76488946439292","mean_motion":14.76488946,"eccentricity":0.0003448,"inclination_deg":98.0527,"raan_deg":207.6173,"arg_perigee_deg":130.1802,"mean_anomaly_deg":229.971,"bstar":8.9925e-5,"rev_number":43929,"period_min":97.528667850927,"perigee_km":638.00878063921,"apogee_km":642.84878360256,"semimajor_km":7018.5657821209,"source":"CELESTRAK","updated_at":"2026-05-25T13:38:12.829573Z"}}